SCP
0 0 0 0 0 0 0 0 0 0 0 0 -0 -0 -0 -0 -0 0 0 -0 -0 0 -0 0 -0 -0 -0 -0 -0 -0 -0 -0 -0 -0 -0 -0 -0 -0 -0 -0 -0 -0 -0 -0 -0 -0 -0 -0 -0
0 0 0 0 0 0 0 0 0 0 0 0 0 -0 -0 -0 -0 0 0 -0 -0 0 -0 -0 -0 -0 -0 -0 -0 -0 -0 -0 -0 -0 -0 -0 -0 -0 -0 -0 -0 -0 -0 -0 -0 -0 -0 -0 -0
0 0 0 0 0 0 0 0 0 0 0 -0 -0 -0 -0 -0 0 0 0 -0 0 -0 -0 -0 0 -0 -0 -0 -0 -0 -0 -0 -0 -0 -0 -0 -0 -0 -0 -0 -0 -0 -0 -0 -0 -0 -0 -0 -0
0 0 0 0 0 0 -0 0 0 0 0 0 -0 -0 0 0 0 0 0 0 0 -0 -0 -0 -0 -0 -0 0 -0 -0 -0 -0 -0 -0 -0 -0 -0 -0 -0 -0 -0 -0 -0 -0 -0 -0 -0 -0 -0
0 0 0 0 0 0 0 0 0 0 -0 -0 0 -0 0 0 0 0 0 0 0 -0 -0 -0 -0 -0 -0 -0 -0 0 -0 -0 -0 -0 -0 -0 -0 -0 -0 -0 -0 -0 -0 -0 -0 -0 -0 -0 -0
0 0 0 0 0 0 0 0 -0 0 -0 0 0 0 0 -0 0 0 0 0 0 0 -0 -0 -0 -0 -0 -0 -0 0 0 0 0 0 -0 -0 -0 -0 -0 -0 -0 -0 -0 -0 -0 -0 -0 -0 -0
0 0 0 0 0 0 0 0 0 0 0 0 -0 0 0 0 0 0 0 0 0 0 0 -0 -0 -0 -0 -0 -0 0 0 0 0 0 -0 -0 -0 -0 -0 -0 -0 -0 -0 -0 -0 -0 -0 -0 -0
0 0 0 0 0 0 0 0 0 0 0 0 0 0 0 -0 0 0 0 0 0 -0 -0 -0 -0 -0 -0 -0 -0 0 0 0 -0 -0 -0 -0 -0 -0 -0 -0 -0 -0 -0 -0 -0 -0 -0 0 0
0 0 0 0 0 0 0 0 0 0 0 0 0 0 -0 0 0 0 0 0 -0 -0 -0 -0 -0 -0 -0 -0 0 0 0 -0 -0 -0 -0 -0 0 0 -0 0 -0 -0 -0 -0 -0 0 0 0 0
0 0 0 0 0 0 0 0 0 0 0 0 0 0 0 0 0 0 0 0 0 0 0 0 0 0 0 0 0 0 0 0 0 0 0 0 0 0 0 0 -0 -0 -0 -0 0 0 0 0 0
0 0 0 0 0 0 0 0 0 0 0 0 0 0 0 0 0 0 0 0 0 0 0 0 0 0 0 0 0 0 0 0 0 0 0 0 0 0 0 0 0 0 0 0 0 0 0 0 0
0 0 0 0 0 0 0 0 0 0 0 0 0 0 0 0 0 0 0 0 0 0 0 0 -0 -0 -0 0 0 0 0 0 0 0 0 0 0 0 0 0 0 0 0 0 0 0 0 0 0
0 0 0 0 0 0 0 0 0 0 0 0 0 0 0 0 0 -0 0 0 0 -0 -0 -0 -0 -0 -0 -0 -0 -0 0 0 -0 -0 -0 -0 0 0 0 0 0 0 0 0 0 0 0 0 0
0 0 0 0 0 0 0 0 0 0 0 0 0 0 0 0 0 -0 0 0 -0 -0 -0 -0 -0 -0 -0 -0 -0 -0 -0 -0 -0 -0 -0 -0 0 0 0 0 0 0 0 0 0 0 0 0 0
0 0 0 0 0 0 0 0 0 0 0 0 0 0 0 0 0 0 0 0 0 -0 -0 -0 -0 0 0 -0 0 0 0 0 0 0 0 0 0 0 0 0 0 0 0 0 0 0 0 0 0
0 0 0 0 0 0 0 0 0 0 0 0 0 0 0 0 0 0 0 0 0 0 0 0 0 0 0 0 0 0 0 0 0 0 0 0 0 0 0 0 0 0 0 0 0 0 0 0 0
0 0 0 0 0 0 0 0 0 0 0 0 0 0 0 0 0 0 0 0 0 0 0 0 0 0 0 0 0 0 0 0 0 0 0 0 0 0 0 0 0 0 0 0 0 0 0 0 0
0 0 0 0 0 0 0 0 0 0 0 0 0 0 0 0 0 0 0 0 0 0 0 0 0 0 0 0 0 0 0 0 0 0 0 0 0 0 0 0 0 0 0 0 0 0 0 0 0
0 0 0 0 0 0 0 0 0 0 0 0 0 0 0 0 0 0 0 0 0 0 0 0 0 0 0 0 0 0 0 0 0 0 0 0 0 0 0 0 0 0 0 0 0 0 0 0 0
0 0 0 0 0 0 0 0 0 0 0 0 0 0 0 0 0 0 0 0 0 0 0 0 0 0 0 0 0 0 0 0 0 0 0 0 0 0 0 0 0 0 0 0 0 0 0 0 0
0 0 0 0 0 0 0 0 0 0 0 0 0 0 0 0 0 0 0 0 0 0 0 0 0 0 0 0 0 0 0 0 0 0 0 0 0 0 0 0 0 0 0 0 0 0 0 0 0
0 0 0 0 0 0 0 -0 0 0 0 0 0 0 0 0 0 0 0 0 0 0 0 0 0 0 0 0 0 0 0 0 0 0 0 0 0 0 0 0 0 0 0 0 0 0 0 0 0
0 0 0 0 0 0 0 0 0 0 0 0 0 0 0 0 0 0 0 0 0 0 0 0 0 0 0 0 0 0 0 0 0 0 0 0 0 0 0 0 0 0 0 0 0 0 0 0 0
0 0 0 0 0 0 0 0 0 0 0 0 0 0 0 0 0 0 0 0 0 0 0 0 0 0 0 0 0 0 0 0 0 0 0 0 0 0 0 0 0 0 0 0 0 0 0 0 0
0 0 0 0 0 0 0 0 0 0 0 0 0 0 0 0 0 0 0 0 0 0 0 0 0 0 0 0 0 0 0 0 0 0 0 0 0 0 0 0 0 0 0 0 0 0 0 0 0
0 0 0 0 0 0 0 0 0 0 0 0 0 0 0 0 0 0 0 0 0 0 0 0 0 0 0 0 0 0 0 0 0 0 0 0 0 0 0 0 0 0 0 0 0 0 0 0 0
0 0 0 0 0 0 0 0 0 0 0 0 0 0 0 0 0 0 0 0 0 0 0 0 0 0 0 0 0 0 0 0 0 0 0 0 0 0 0 0 0 0 0 0 0 0 0 0 0
0 0 0 0 0 0 0 0 0 0 0 0 0 0 0 0 0 0 0 0 0 0 0 0 0 0 0 0 0 0 0 0 0 0 0 0 0 0 0 0 0 0 0 0 0 0 0 0 0
0 0 0 0 0 0 0 0 0 0 0 0 0 0 0 0 0 0 0 0 0 0 0 0 0 0 0 0 0 0 0 0 0 0 0 0 0 0 0 0 0 0 0 0 0 0 0 0 0
0 0 0 0 0 0 0 0 0 0 0 0 0 0 0 0 0 0 0 0 0 0 0 0 0 0 0 0 0 0 0 0 0 0 0 0 0 0 0 0 0 0 0 0 0 0 0 0 0
Wind_Speed_500mb
8 11 10 7 7 10 5 3 10 10 9 23 24 21 20 17 6 8 39 27 33 39 31 28 24 25 28 27 23 24 24 25 24 25 26 28 30 31 29 33 33 31 30 25 26 26 27 25 25
7 10 4 3 8 6 10 4 16 15 21 28 23 16 14 7 28 39 43 26 35 37 33 27 24 24 26 29 27 24 25 26 25 25 27 32 34 28 27 32 32 30 30 31 32 30 26 27 30
6 9 6 7 5 6 7 4 14 24 26 15 8 21 10 10 42 39 40 34 36 36 33 28 27 28 28 32 29 24 23 24 27 28 29 35 33 25 28 29 32 30 31 31 31 31 32 34 34
4 1 6 8 6 13 10 13 33 14 17 14 21 17 16 15 30 34 42 38 41 37 32 29 27 27 32 33 31 24 19 23 26 27 28 28 26 24 23 25 27 26 29 28 27 25 25 25 30
3 3 3 3 6 9 9 40 38 11 16 8 13 6 15 20 20 45 47 37 40 34 28 28 28 28 30 32 29 21 18 20 22 23 24 23 21 20 20 22 21 22 25 25 23 23 25 25 34
3 0 6 5 6 8 11 35 32 20 23 18 29 19 10 17 34 54 39 34 33 32 30 29 30 29 29 32 31 23 18 18 19 20 21 20 19 17 17 18 22 22 24 23 22 23 24 29 38
4 7 7 8 0 6 8 17 20 23 24 12 15 11 24 32 57 51 44 33 29 27 30 28 29 30 30 29 29 25 20 18 17 18 18 18 17 17 19 21 16 18 19 20 21 23 27 29 31
5 8 5 7 6 11 16 17 14 22 9 18 11 13 16 45 57 51 43 31 30 23 31 29 27 27 27 27 26 22 20 17 16 16 15 16 15 15 15 17 11 11 14 17 20 21 22 22 22
6 6 7 10 5 8 23 11 14 16 24 12 10 12 22 50 59 56 45 35 29 25 29 27 26 24 23 22 21 19 18 16 14 12 12 13 12 12 13 12 6 7 12 14 15 17 17 16 15
7 8 17 12 9 11 19 27 23 12 25 11 26 30 42 49 61 63 57 49 38 32 33 28 28 26 24 22 20 18 16 14 12 9 9 8 10 10 7 4 3 6 8 9 10 10 11 12 13
10 9 10 2 9 49 36 17 23 27 5 22 49 59 46 49 56 61 56 50 47 35 34 28 28 31 29 24 22 19 16 14 12 9 5 2 5 5 2 2 2 3 4 3 4 3 2 3 6
6 18 7 10 5 30 28 24 16 25 10 26 37 41 43 50 58 60 57 53 49 43 39 35 31 24 25 26 23 21 19 17 15 12 8 4 2 2 2 2 2 2 1 2 4 3 1 2 2
11 8 8 10 9 27 33 19 15 18 22 32 42 43 40 44 52 52 54 52 51 49 45 46 43 40 37 28 27 26 23 22 18 15 14 11 10 9 8 7 5 6 4 3 3 3 3 2 2
15 18 13 11 12 7 17 8 14 23 29 30 43 43 36 40 44 45 46 54 54 51 48 46 49 45 43 37 29 27 24 25 24 22 18 17 15 15 14 12 10 8 7 6 4 4 4 4 5
42 10 1 12 14 7 19 1 11 28 39 40 42 37 31 33 38 44 47 47 54 52 46 44 46 56 50 44 39 35 35 31 27 26 24 22 22 20 19 18 16 14 13 11 9 7 7 5 6
15 11 8 8 19 6 10 11 24 31 45 40 40 41 41 43 42 44 41 45 49 52 54 45 39 43 49 51 47 42 37 39 32 30 28 29 28 27 26 24 21 20 19 17 16 13 11 11 11
8 10 10 7 22 6 7 9 8 45 45 37 37 36 39 43 44 46 47 44 42 50 52 47 42 38 38 41 47 46 44 42 40 38 35 29 27 29 30 29 26 25 24 24 22 26 24 24 25
8 7 8 12 13 8 8 10 8 27 35 34 30 32 38 50 47 43 49 46 43 43 49 47 44 42 38 41 44 44 42 46 46 42 41 38 34 28 28 31 31 31 30 32 32 33 36 36 37
7 11 15 3 8 9 16 12 20 23 26 30 33 31 31 34 38 34 42 50 43 44 48 49 45 43 42 44 45 49 51 48 47 46 44 44 43 38 34 33 35 36 35 34 37 40 41 43 44
11 11 11 4 2 9 5 21 18 20 31 44 41 38 35 39 35 35 37 41 53 51 46 48 47 43 43 43 38 41 47 51 47 46 46 44 45 44 43 39 39 39 39 41 42 43 45 46 49
12 12 12 12 6 1 5 14 12 18 36 36 47 43 36 39 44 40 44 44 42 52 56 53 47 47 48 47 40 37 36 41 43 45 46 47 45 46 47 48 47 46 47 46 47 46 49 52 52
14 8 15 23 11 8 8 10 10 14 18 20 45 46 38 29 39 49 46 46 46 49 54 60 62 55 50 47 49 46 47 42 42 39 41 42 44 45 46 45 46 48 51 49 51 48 48 51 51
10 12 15 9 9 10 5 5 15 4 8 15 34 34 31 33 37 37 39 39 38 39 40 49 56 62 64 59 52 47 48 44 39 37 34 35 34 37 38 38 39 44 47 50 50 56 52 49 55
16 14 15 10 7 0 12 12 11 9 13 8 12 35 34 30 28 28 28 29 33 35 37 40 46 51 58 63 63 55 42 37 37 29 25 27 26 25 24 23 25 26 29 33 36 39 43 46 47
13 12 4 4 1 11 2 7 17 9 8 16 28 41 32 28 28 27 24 21 23 21 21 22 24 31 37 49 59 59 46 32 26 24 24 22 22 23 23 25 24 24 25 29 31 36 39 47 47
12 14 12 13 9 8 3 13 12 8 11 40 43 38 35 33 29 24 23 22 21 22 21 18 18 20 26 33 41 48 53 43 27 21 27 25 27 28 24 20 17 22 21 30 30 32 36 42 45
11 8 10 13 6 7 8 11 12 6 10 32 49 48 44 38 31 28 27 27 24 20 21 20 20 21 24 26 29 29 32 33 41 25 19 17 18 20 20 22 21 25 25 28 31 35 39 45 50
9 16 6 4 9 6 8 8 10 16 21 16 23 46 45 39 36 31 28 27 27 24 23 23 22 23 25 25 23 23 23 25 30 32 15 14 10 7 5 8 12 14 18 21 25 28 32 36 38
7 8 4 10 10 11 5 12 14 16 26 30 33 53 52 44 38 34 32 30 28 28 27 28 27 27 28 29 31 31 30 28 25 20 16 12 8 3 1 5 9 13 16 21 24 27 31 34 37
4 11 10 11 11 3 6 10 3 5 19 46 49 56 45 39 38 36 35 34 34 34 33 33 33 33 32 31 29 28 26 24 20 17 14 11 7 5 4 7 10 15 19 22 26 30 34 37 40
Wind_Direction_500mb
337 342 353 339 48 65 272 13 123 89 50 77 67 83 108 56 45 146 148 176 158 156 149 145 134 134 127 124 108 95 86 82 85 92 95 92 90 88 88 97 100 100 101 97 99 107 107 99 93
335 346 335 288 80 29 276 197 95 95 111 92 78 106 51 70 105 135 154 176 153 151 150 140 130 131 128 126 112 104 91 81 87 91 90 92 94 84 86 96 95 99 96 95 98 104 101 100 102
324 335 330 95 108 200 184 106 134 110 108 109 99 76 71 93 135 141 160 159 146 146 147 142 142 135 128 125 119 109 96 87 92 96 95 100 104 89 88 93 97 94 95 96 101 102 103 105 107
334 56 266 90 260 285 138 154 127 106 89 77 107 69 78 164 145 159 164 159 148 138 142 140 136 133 131 132 126 123 107 89 85 90 96 104 106 95 91 97 99 98 99 101 106 107 111 110 109
1 294 33 16 297 269 58 136 126 109 128 125 94 98 89 125 152 157 162 168 157 141 143 140 140 135 131 132 129 129 112 99 90 88 96 101 101 91 86 96 98 96 98 95 93 98 104 99 101
294 126 60 259 265 254 95 141 131 134 143 127 111 111 117 154 155 154 162 164 163 154 153 148 142 139 136 137 135 139 128 111 96 91 97 102 102 96 91 95 91 101 92 88 88 93 98 100 110
151 87 215 241 238 255 161 132 127 138 136 151 136 92 142 163 159 156 165 173 174 164 161 156 150 145 143 142 147 143 138 122 108 98 95 98 106 107 96 97 89 106 85 88 90 95 99 108 118
238 108 226 243 153 268 170 128 84 136 115 132 115 149 169 171 162 158 168 181 173 172 171 165 157 151 149 147 146 150 139 132 121 104 96 101 104 106 116 114 117 97 99 94 90 98 103 105 118
200 82 214 242 202 206 160 125 80 103 117 96 94 138 176 164 161 160 169 176 185 181 179 173 168 163 158 155 153 152 149 144 133 120 102 103 110 114 128 143 103 59 106 110 102 105 104 100 99
179 141 215 211 210 212 168 147 138 128 125 97 99 133 150 165 166 166 175 179 190 190 187 184 184 180 175 172 169 166 162 157 150 142 127 116 108 108 115 132 91 44 66 99 106 105 107 109 112
207 170 253 253 325 169 161 150 166 137 185 183 148 151 162 170 175 173 183 186 189 197 192 188 195 192 186 184 185 185 184 181 175 183 177 105 83 68 53 15 14 35 61 97 123 136 74 67 98
302 238 272 236 181 161 159 159 171 166 182 201 187 178 175 179 181 182 186 190 193 201 198 194 198 203 209 192 197 201 204 208 201 201 212 237 229 273 268 286 255 217 190 231 192 231 302 38 25
224 226 181 242 164 177 151 161 173 153 135 148 175 180 185 183 188 191 193 197 202 208 211 211 204 194 198 212 211 211 214 219 221 220 220 229 237 257 252 256 242 234 247 241 229 264 265 151 183
257 222 183 211 174 152 140 142 169 180 157 152 165 178 190 189 191 191 196 200 209 214 217 223 225 214 207 204 215 216 225 221 225 231 231 233 239 251 263 264 267 262 266 261 266 276 238 223 227
239 121 246 189 184 178 125 31 204 184 182 157 173 183 191 194 199 201 200 202 210 220 224 226 228 225 220 216 215 211 214 217 237 234 237 240 245 248 253 261 266 265 260 252 245 263 235 248 247
155 115 167 244 164 211 171 235 236 182 177 179 183 187 196 204 208 212 209 207 208 223 229 234 227 222 230 228 222 224 216 221 228 239 242 238 246 247 249 254 259 259 259 256 254 262 266 269 277
184 185 164 192 189 154 164 223 231 181 188 188 195 201 207 211 208 212 215 218 213 217 228 235 240 234 234 235 227 229 225 225 224 231 238 247 236 244 248 253 255 255 256 253 254 257 259 269 280
174 182 170 168 206 181 185 235 191 172 180 197 209 217 223 216 215 217 208 215 217 219 225 234 238 242 246 248 228 228 231 231 232 236 236 237 244 243 244 248 252 252 256 250 252 260 262 266 272
200 203 182 166 163 136 201 224 221 202 194 195 208 214 209 213 226 226 211 209 207 215 219 227 234 236 240 243 230 226 229 231 234 237 238 238 240 246 252 248 252 254 259 261 260 264 267 271 275
210 215 199 4 102 135 187 250 245 216 213 209 209 210 215 223 212 212 206 208 212 213 219 228 234 241 244 247 249 248 243 237 238 239 239 241 242 247 253 257 265 267 267 265 263 262 267 271 271
195 187 199 164 166 85 98 291 235 239 229 216 222 218 219 228 209 199 196 202 205 208 213 216 223 234 246 253 253 247 246 236 237 239 240 243 249 251 255 262 265 264 265 267 270 268 270 272 276
203 199 158 141 126 196 146 261 281 236 223 210 220 211 194 178 186 189 190 199 205 212 215 220 219 221 231 242 246 240 232 235 239 242 250 248 253 254 258 260 263 265 268 266 268 270 278 285 281
190 140 149 136 107 102 222 105 269 111 183 207 199 194 184 181 186 180 190 202 209 219 224 225 224 222 223 226 234 242 244 246 252 252 249 254 257 258 262 264 261 262 264 266 268 270 281 283 284
136 91 44 49 82 131 222 155 275 212 193 184 160 168 165 176 190 196 205 214 226 231 229 229 229 225 222 223 229 234 231 235 248 255 258 255 255 257 264 269 274 277 272 273 274 274 275 277 282
113 109 56 27 5 221 332 160 242 252 179 187 160 156 160 175 188 193 194 194 196 195 198 203 208 212 211 213 219 229 230 218 225 235 241 233 241 253 260 271 275 279 281 279 276 276 278 284 285
167 151 145 174 183 220 12 221 250 226 201 160 157 154 156 160 168 174 166 168 172 165 163 163 162 173 186 200 207 215 225 223 207 216 231 242 248 253 257 256 251 257 263 270 268 270 277 285 285
206 171 154 102 17 79 213 280 301 122 86 137 148 154 156 164 172 174 164 164 164 159 151 154 153 161 163 176 190 200 209 215 210 201 212 214 222 231 246 255 256 265 273 275 276 277 278 278 282
187 153 103 19 131 234 267 266 230 204 187 169 163 162 166 168 171 170 167 164 160 160 155 149 143 140 138 145 159 171 182 191 200 218 177 169 178 202 247 274 281 283 288 292 293 293 293 295 296
159 183 160 121 143 165 163 252 222 213 195 186 179 178 174 171 173 170 166 163 159 153 151 148 143 139 134 131 129 128 127 125 127 129 128 122 114 106 353 318 313 311 312 315 317 318 317 317 317
320 196 153 170 203 215 157 263 219 310 209 177 180 183 180 178 173 170 167 163 160 156 151 146 142 140 134 129 128 128 127 126 128 125 120 110 101 84 47 9 351 343 336 331 329 327 325 322 321
Wind_Speed_850mb
8 11 10 7 7 10 5 3 10 10 9 23 24 21 20 17 6 8 39 27 33 39 31 28 24 25 28 27 23 24 24 25 24 25 26 28 30 31 29 33 33 31 30 25 26 26 27 25 25
7 10 4 3 8 6 10 4 16 15 21 28 23 16 14 7 28 39 43 26 35 37 33 27 24 24 26 29 27 24 25 26 25 25 27 32 34 28 27 32 32 30 30 31 32 30 26 27 30
6 9 6 7 5 6 7 4 14 24 26 15 8 21 10 10 42 39 40 34 36 36 33 28 27 28 28 32 29 24 23 24 27 28 29 35 33 25 28 29 32 30 31 31 31 31 32 34 34
4 1 6 8 6 13 10 13 33 14 17 14 21 17 16 15 30 34 42 38 41 37 32 29 27 27 32 33 31 24 19 23 26 27 28 28 26 24 23 25 27 26 29 28 27 25 25 25 30
3 3 3 3 6 9 9 40 38 11 16 8 13 6 15 20 20 45 47 37 40 34 28 28 28 28 30 32 29 21 18 20 22 23 24 23 21 20 20 22 21 22 25 25 23 23 25 25 34
3 0 6 5 6 8 11 35 32 20 23 18 29 19 10 17 34 54 39 34 33 32 30 29 30 29 29 32 31 23 18 18 19 20 21 20 19 17 17 18 22 22 24 23 22 23 24 29 38
4 7 7 8 0 6 8 17 20 23 24 12 15 11 24 32 57 51 44 33 29 27 30 28 29 30 30 29 29 25 20 18 17 18 18 18 17 17 19 21 16 18 19 20 21 23 27 29 31
5 8 5 7 6 11 16 17 14 22 9 18 11 13 16 45 57 51 43 31 30 23 31 29 27 27 27 27 26 22 20 17 16 16 15 16 15 15 15 17 11 11 14 17 20 21 22 22 22
6 6 7 10 5 8 23 11 14 16 24 12 10 12 22 50 59 56 45 35 29 25 29 27 26 24 23 22 21 19 18 16 14 12 12 13 12 12 13 12 6 7 12 14 15 17 17 16 15
7 8 17 12 9 11 19 27 23 12 25 11 26 30 42 49 61 63 57 49 38 32 33 28 28 26 24 22 20 18 16 14 12 9 9 8 10 10 7 4 3 6 8 9 10 10 11 12 13
10 9 10 2 9 49 36 17 23 27 5 22 49 59 46 49 56 61 56 50 47 35 34 28 28 31 29 24 22 19 16 14 12 9 5 2 5 5 2 2 2 3 4 3 4 3 2 3 6
6 18 7 10 5 30 28 24 16 25 10 26 37 41 43 50 58 60 57 53 49 43 39 35 31 24 25 26 23 21 19 17 15 12 8 4 2 2 2 2 2 2 1 2 4 3 1 2 2
11 8 8 10 9 27 33 19 15 18 22 32 42 43 40 44 52 52 54 52 51 49 45 46 43 40 37 28 27 26 23 22 18 15 14 11 10 9 8 7 5 6 4 3 3 3 3 2 2
15 18 13 11 12 7 17 8 14 23 29 30 43 43 36 40 44 45 46 54 54 51 48 46 49 45 43 37 29 27 24 25 24 22 18 17 15 15 14 12 10 8 7 6 4 4 4 4 5
42 10 1 12 14 7 19 1 11 28 39 40 42 37 31 33 38 44 47 47 54 52 46 44 46 56 50 44 39 35 35 31 27 26 24 22 22 20 19 18 16 14 13 11 9 7 7 5 6
15 11 8 8 19 6 10 11 24 31 45 40 40 41 41 43 42 44 41 45 49 52 54 45 39 43 49 51 47 42 37 39 32 30 28 29 28 27 26 24 21 20 19 17 16 13 11 11 11
8 10 10 7 22 6 7 9 8 45 45 37 37 36 39 43 44 46 47 44 42 50 52 47 42 38 38 41 47 46 44 42 40 38 35 29 27 29 30 29 26 25 24 24 22 26 24 24 25
8 7 8 12 13 8 8 10 8 27 35 34 30 32 38 50 47 43 49 46 43 43 49 47 44 42 38 41 44 44 42 46 46 42 41 38 34 28 28 31 31 31 30 32 32 33 36 36 37
7 11 15 3 8 9 16 12 20 23 26 30 33 31 31 34 38 34 42 50 43 44 48 49 45 43 42 44 45 49 51 48 47 46 44 44 43 38 34 33 35 36 35 34 37 40 41 43 44
11 11 11 4 2 9 5 21 18 20 31 44 41 38 35 39 35 35 37 41 53 51 46 48 47 43 43 43 38 41 47 51 47 46 46 44 45 44 43 39 39 39 39 41 42 43 45 46 49
12 12 12 12 6 1 5 14 12 18 36 36 47 43 36 39 44 40 44 44 42 52 56 53 47 47 48 47 40 37 36 41 43 45 46 47 45 46 47 48 47 46 47 46 47 46 49 52 52
14 8 15 23 11 8 8 10 10 14 18 20 45 46 38 29 39 49 46 46 46 49 54 60 62 55 50 47 49 46 47 42 42 39 41 42 44 45 46 45 46 48 51 49 51 48 48 51 51
10 12 15 9 9 10 5 5 15 4 8 15 34 34 31 33 37 37 39 39 38 39 40 49 56 62 64 59 52 47 48 44 39 37 34 35 34 37 38 38 39 44 47 50 50 56 52 49 55
16 14 15 10 7 0 12 12 11 9 13 8 12 35 34 30 28 28 28 29 33 35 37 40 46 51 58 63 63 55 42 37 37 29 25 27 26 25 24 23 25 26 29 33 36 39 43 46 47
13 12 4 4 1 11 2 7 17 9 8 16 28 41 32 28 28 27 24 21 23 21 21 22 24 31 37 49 59 59 46 32 26 24 24 22 22 23 23 25 24 24 25 29 31 36 39 47 47
12 14 12 13 9 8 3 13 12 8 11 40 43 38 35 33 29 24 23 22 21 22 21 18 18 20 26 33 41 48 53 43 27 21 27 25 27 28 24 20 17 22 21 30 30 32 36 42 45
11 8 10 13 6 7 8 11 12 6 10 32 49 48 44 38 31 28 27 27 24 20 21 20 20 21 24 26 29 29 32 33 41 25 19 17 18 20 20 22 21 25 25 28 31 35 39 45 50
9 16 6 4 9 6 8 8 10 16 21 16 23 46 45 39 36 31 28 27 27 24 23 23 22 23 25 25 23 23 23 25 30 32 15 14 10 7 5 8 12 14 18 21 25 28 32 36 38
7 8 4 10 10 11 5 12 14 16 26 30 33 53 52 44 38 34 32 30 28 28 27 28 27 27 28 29 31 31 30 28 25 20 16 12 8 3 1 5 9 13 16 21 24 27 31 34 37
4 11 10 11 11 3 6 10 3 5 19 46 49 56 45 39 38 36 35 34 34 34 33 33 33 33 32 31 29 28 26 24 20 17 14 11 7 5 4 7 10 15 19 22 26 30 34 37 40
Wind_Direction_850mb
337 342 353 339 48 65 272 13 123 89 50 77 67 83 108 56 45 146 148 176 158 156 149 145 134 134 127 124 108 95 86 82 85 92 95 92 90 88 88 97 100 100 101 97 99 107 107 99 93
335 346 335 288 80 29 276 197 95 95 111 92 78 106 51 70 105 135 154 176 153 151 150 140 130 131 128 126 112 104 91 81 87 91 90 92 94 84 86 96 95 99 96 95 98 104 101 100 102
324 335 330 95 108 200 184 106 134 110 108 109 99 76 71 93 135 141 160 159 146 146 147 142 142 135 128 125 119 109 96 87 92 96 95 100 104 89 88 93 97 94 95 96 101 102 103 105 107
334 56 266 90 260 285 138 154 127 106 89 77 107 69 78 164 145 159 164 159 148 138 142 140 136 133 131 132 126 123 107 89 85 90 96 104 106 95 91 97 99 98 99 101 106 107 111 110 109
1 294 33 16 297 269 58 136 126 109 128 125 94 98 89 125 152 157 162 168 157 141 143 140 140 135 131 132 129 129 112 99 90 88 96 101 101 91 86 96 98 96 98 95 93 98 104 99 101
294 126 60 259 265 254 95 141 131 134 143 127 111 111 117 154 155 154 162 164 163 154 153 148 142 139 136 137 135 139 128 111 96 91 97 102 102 96 91 95 91 101 92 88 88 93 98 100 110
151 87 215 241 238 255 161 132 127 138 136 151 136 92 142 163 159 156 165 173 174 164 161 156 150 145 143 142 147 143 138 122 108 98 95 98 106 107 96 97 89 106 85 88 90 95 99 108 118
238 108 226 243 153 268 170 128 84 136 115 132 115 149 169 171 162 158 168 181 173 172 171 165 157 151 149 147 146 150 139 132 121 104 96 101 104 106 116 114 117 97 99 94 90 98 103 105 118
200 82 214 242 202 206 160 125 80 103 117 96 94 138 176 164 161 160 169 176 185 181 179 173 168 163 158 155 153 152 149 144 133 120 102 103 110 114 128 143 103 59 106 110 102 105 104 100 99
179 141 215 211 210 212 168 147 138 128 125 97 99 133 150 165 166 166 175 179 190 190 187 184 184 180 175 172 169 166 162 157 150 142 127 116 108 108 115 132 91 44 66 99 106 105 107 109 112
207 170 253 253 325 169 161 150 166 137 185 183 148 151 162 170 175 173 183 186 189 197 192 188 195 192 186 184 185 185 184 181 175 183 177 105 83 68 53 15 14 35 61 97 123 136 74 67 98
302 238 272 236 181 161 159 159 171 166 182 201 187 178 175 179 181 182 186 190 193 201 198 194 198 203 209 192 197 201 204 208 201 201 212 237 229 273 268 286 255 217 190 231 192 231 302 38 25
224 226 181 242 164 177 151 161 173 153 135 148 175 180 185 183 188 191 193 197 202 208 211 211 204 194 198 212 211 211 214 219 221 220 220 229 237 257 252 256 242 234 247 241 229 264 265 151 183
257 222 183 211 174 152 140 142 169 180 157 152 165 178 190 189 191 191 196 200 209 214 217 223 225 214 207 204 215 216 225 221 225 231 231 233 239 251 263 264 267 262 266 261 266 276 238 223 227
239 121 246 189 184 178 125 31 204 184 182 157 173 183 191 194 199 201 200 202 210 220 224 226 228 225 220 216 215 211 214 217 237 234 237 240 245 248 253 261 266 265 260 252 245 263 235 248 247
155 115 167 244 164 211 171 235 236 182 177 179 183 187 196 204 208 212 209 207 208 223 229 234 227 222 230 228 222 224 216 221 228 239 242 238 246 247 249 254 259 259 259 256 254 262 266 269 277
184 185 164 192 189 154 164 223 231 181 188 188 195 201 207 211 208 212 215 218 213 217 228 235 240 234 234 235 227 229 225 225 224 231 238 247 236 244 248 253 255 255 256 253 254 257 259 269 280
174 182 170 168 206 181 185 235 191 172 180 197 209 217 223 216 215 217 208 215 217 219 225 234 238 242 246 248 228 228 231 231 232 236 236 237 244 243 244 248 252 252 256 250 252 260 262 266 272
200 203 182 166 163 136 201 224 221 202 194 195 208 214 209 213 226 226 211 209 207 215 219 227 234 236 240 243 230 226 229 231 234 237 238 238 240 246 252 248 252 254 259 261 260 264 267 271 275
210 215 199 4 102 135 187 250 245 216 213 209 209 210 215 223 212 212 206 208 212 213 219 228 234 241 244 247 249 248 243 237 238 239 239 241 242 247 253 257 265 267 267 265 263 262 267 271 271
195 187 199 164 166 85 98 291 235 239 229 216 222 218 219 228 209 199 196 202 205 208 213 216 223 234 246 253 253 247 246 236 237 239 240 243 249 251 255 262 265 264 265 267 270 268 270 272 276
203 199 158 141 126 196 146 261 281 236 223 210 220 211 194 178 186 189 190 199 205 212 215 220 219 221 231 242 246 240 232 235 239 242 250 248 253 254 258 260 263 265 268 266 268 270 278 285 281
190 140 149 136 107 102 222 105 269 111 183 207 199 194 184 181 186 180 190 202 209 219 224 225 224 222 223 226 234 242 244 246 252 252 249 254 257 258 262 264 261 262 264 266 268 270 281 283 284
136 91 44 49 82 131 222 155 275 212 193 184 160 168 165 176 190 196 205 214 226 231 229 229 229 225 222 223 229 234 231 235 248 255 258 255 255 257 264 269 274 277 272 273 274 274 275 277 282
113 109 56 27 5 221 332 160 242 252 179 187 160 156 160 175 188 193 194 194 196 195 198 203 208 212 211 213 219 229 230 218 225 235 241 233 241 253 260 271 275 279 281 279 276 276 278 284 285
167 151 145 174 183 220 12 221 250 226 201 160 157 154 156 160 168 174 166 168 172 165 163 163 162 173 186 200 207 215 225 223 207 216 231 242 248 253 257 256 251 257 263 270 268 270 277 285 285
206 171 154 102 17 79 213 280 301 122 86 137 148 154 156 164 172 174 164 164 164 159 151 154 153 161 163 176 190 200 209 215 210 201 212 214 222 231 246 255 256 265 273 275 276 277 278 278 282
187 153 103 19 131 234 267 266 230 204 187 169 163 162 166 168 171 170 167 164 160 160 155 149 143 140 138 145 159 171 182 191 200 218 177 169 178 202 247 274 281 283 288 292 293 293 293 295 296
159 183 160 121 143 165 163 252 222 213 195 186 179 178 174 171 173 170 166 163 159 153 151 148 143 139 134 131 129 128 127 125 127 129 128 122 114 106 353 318 313 311 312 315 317 318 317 317 317
320 196 153 170 203 215 157 263 219 310 209 177 180 183 180 178 173 170 167 163 160 156 151 146 142 140 134 129 128 128 127 126 128 125 120 110 101 84 47 9 351 343 336 331 329 327 325 322 321